Regional Weather Roundup
Issued by NWS

Home | Current Version | Previous Version | Text Only | Print | Product List | Glossary On
Versions: 1 2 3 4 5 6 7 8 9 10 11 12 13 14 15 16 17 18 19 20 21 22 23 24 25 26 27 28 29 30 31 32 33 34 35 36 37 38 39 40 41 42 43 44 45 46 47 48 49 50
000
ASUS43 KDMX 180906
RWRIA

WEATHER ROUNDUP FOR IOWA
NATIONAL WEATHER SERVICE DES MOINES IA
300 AM CST MON DEC 18 2017

NOTE: "FAIR" INDICATES FEW OR NO CLOUDS BELOW 12,000 FEET WITH NO
SIGNIFICANT WEATHER AND/OR OBSTRUCTIONS TO VISIBILITY.

* - THESE STATIONS ARE NOT NWS STATIONS...THUS NOT UNDER NWS
QUALITY CONTROL.  THEY ALSO DO NOT REPORT WEATHER SUCH
AS PRECIPITATION OR FOG.

IAZ001>003-012>014-020>022-031>034-043>046-181000-
   NORTHWEST IOWA

CITY           SKY/WX    TMP DP  RH WIND       PRES   REMARKS
CARROLL *      CLOUDY    23  21  93 W5        29.94S FOG     WCI  17
CHEROKEE *     CLEAR     20  20 100 SW5       29.92R FOG     WCI  13
DENISON *      CLOUDY    23  23 100 SW5       29.95F FOG     WCI  17
LE MARS *      CLEAR     21  21 100 S6        29.90F WCI  14
ORANGE CITY *  CLEAR     25  25 100 S5        29.88F FOG     WCI  19
SHELDON *      CLEAR     25  25 100 SW8       29.87S WCI  16
SIOUX CITY     CLOUDY    18  17  96 E8        29.92F WCI   8
SPENCER        CLEAR     23  21  92 CALM      29.89F FOG
STORM LAKE *   CLEAR     21  19  93 SW6       29.90F FOG     WCI  14
$$

IAZ055>058-069>071-079>083-090>094-181000-
   SOUTHWEST IOWA

CITY           SKY/WX    TMP DP  RH WIND       PRES   REMARKS
ATLANTIC *     CLOUDY    21  21 100 SW5       29.98R FOG     WCI  15
AUDUBON *      CLOUDY    21  18  86 CALM      29.95S FOG
CLARINDA *     FOG       27  27 100 CALM      30.01S VSB 1/4
COUNCIL BLFS * CLOUDY    28  28 100 S8        29.97R FOG     WCI  20
CRESTON *      FOG       30  30 100 W9        29.98F VSB 1/4 WCI  22
HARLAN  *      CLOUDY    21  21 100 S6        30.00R FOG     WCI  14
LAMONI         CLOUDY    35  34  96 W6        29.98R FOG     WCI  30
RED OAK *      FOG       27  27 100 SW3       29.99S VSB<1/4
SHENANDOAH *   CLEAR     27  27 100 SW3       30.00S FOG
$$

IAZ047>049-059>061-072>074-084-181000-
   CENTRAL IOWA

CITY           SKY/WX    TMP DP  RH WIND       PRES   REMARKS
AMES           CLOUDY    21  21 100 W7        29.95F FOG     WCI  12
ANKENY *       CLOUDY    25  23  93 SW5       29.98S FOG     WCI  19
BOONE *        CLOUDY    25  25 100 SW7       29.94R FOG     WCI  17
CHARITON *     CLOUDY    34  32  93 W6        29.97S WCI  29
DES MOINES     CLOUDY    27  24  89 SW7       29.97S FOG     WCI  19
GRINNELL*      CLEAR     26  25  94 SW8       29.96S FOG     WCI  18
KNOXVILLE *    CLOUDY    34  32  93 W5        29.96S FOG     WCI  30
MARSHALLTOWN   PTCLDY    22  21  96 W7        29.94S FOG     WCI  13
NEWTON *       PTCLDY    25  25 100 W7        29.97R FOG     WCI  17
PELLA *        CLOUDY    32  31  95 W7        29.98S FOG     WCI  26
PERRY *          N/A     21  20  95 SW7       29.96S FOG     WCI  13
$$

IAZ004>006-015-016-023>025-035-036-181000-
   NORTH CENTRAL IOWA

CITY           SKY/WX    TMP DP  RH WIND       PRES   REMARKS
ALGONA *       CLEAR     23  23 100 S8        29.90S FOG     WCI  14
CLARION *      FOG       21  21 100 S6        29.93S VSB<1/4 WCI  14
ESTHERVILLE    CLOUDY    26  25  96 SW8       29.88F WCI  18
FORT DODGE *   PTCLDY    21  19  92 SW6       29.94R FOG     WCI  13
MASON CITY     CLOUDY    27  25  92 W9        29.93R FOG     WCI  18
FOREST CITY *  CLOUDY    28  28 100 S6        29.91S FOG     WCI  22
WEBSTER CITY * FOG       21  21 100 SW6       29.92S VSB 1/4 WCI  14
IOWA FALLS *     N/A     24  22  93 W6        29.94S FOG     WCI  17
$$

IAZ007>011-017>019-026>030-037>042-050>054-066-181000-
   NORTHEAST IOWA

CITY           SKY/WX    TMP DP  RH WIND       PRES   REMARKS
CEDAR RAPIDS   CLEAR     31  30  96 W6        29.94R FOG     WCI  25
CLINTON *      CLOUDY    38  38 100 W10       29.95S FOG     WCI  31
DECORAH *      CLOUDY    30  30 100 VRB5      29.89F FOG     WCI  25
DUBUQUE        CLOUDY    34  33  96 SW12      29.91S FOG     WCI  25
MONTICELLO *   PTCLDY    34  34 100 SW6       29.92F FOG     WCI  29
OELWEIN *      CLOUDY    32  32 100 W10G18    29.92F WCI  24
WATERLOO       CLOUDY    31  28  89 W5        29.93S FOG     WCI  26
$$

IAZ064-065-067-068-078-181000-
   EAST CENTRAL IOWA

CITY           SKY/WX    TMP DP  RH WIND       PRES   REMARKS
DAVENPORT      CLOUDY    38  38 100 W9        29.97S FOG     WCI  31
IOWA CITY      CLOUDY    37  33  85 SW7       29.98R WCI  32
MT. PLEASANT * CLOUDY    42  42 100 SW6       29.98S FOG
MUSCATINE *    CLOUDY    39  39 100 W8        29.97F FOG     WCI  34
QUAD CITIES    CLOUDY    42  41  96 W9        29.95F
$$

IAZ062-063-075>077-085>089-095>099-181000-
   SOUTHEAST IOWA

CITY           SKY/WX    TMP DP  RH WIND       PRES   REMARKS
BURLINGTON     CLOUDY    43  43 100 SW9       29.97S
FAIRFIELD *    FOG       39  39 100 SW6       29.96S VSB 1/4 WCI  35
FORT MADISON * CLOUDY    45  43  93 S8        29.98S
KEOKUK *       CLOUDY    45  43  93 SW10      29.98S
OSKALOOSA *    FOG       36  35  97 W5        29.97S VSB 1/2 WCI  32
OTTUMWA        CLOUDY    38  37  97 W6        29.96S FOG     WCI  33
WASHINGTON *   FOG       37  37 100 W7        29.97F VSB 1/2 WCI  32
$$

ABBREVIATIONS USED IN REMARKS
   TC - TEMPERATURES IN CELSIUS
  WCI - WIND CHILL INDEX
   HX - HEAT INDEX
  VSB - VISIBILITY
$$





USA.gov is the U.S. government's official web portal to all federal, state and local government web resources and services.